Location: Bj�rn�ya
(74.5000°N, 19.0000°E)
Time: 08:01:30
(UTC+02:00)

Envisat - Pass Details

Date: 04 February 2022
Orbit: 764 x 765 km, 98.2° (Epoch: 20 May)

Event Time Altitude Azimuth Distance (km) Brightness Sun altitude
Rises 16:06:40 0° 190° (S) 3,232 6.9 -8.5°
Reaches altitude 10° 16:09:09 10° 198° (SSW) 2,309 6.3 -8.6°
Maximum altitude 16:13:52 37° 266° (W) 1,190 4.7 -8.9°
Drops below altitude 10° 16:18:35 10° 334° (NNW) 2,319 5.5 -9.2°
Sets 16:21:05 0° 342° (NNW) 3,248 6.1 -9.3°
